McClellan AFB, CA

6:32 AM PST on February 19, 2017 (GMT -0800)
McClellan

Weather History for KMCC - December, 2012

Change the Weather History Date:

Sunday, December 23, 2012

  Actual Average (KMHR) Record (KMHR)
Temperature  
Mean Temperature 49 °F -  
Max Temperature 50 °F 50 °F 64 °F (2005)
Min Temperature 48 °F 36 °F 23 °F (2011)
Degree Days  
Heating Degree Days 16    
Moisture  
Dew Point 47 °F    
Average Humidity 93    
Maximum Humidity 100    
Minimum Humidity 87    
Precipitation  
Precipitation 0.00 in - - ()
Sea Level Pressure  
Sea Level Pressure 29.98 in    
Wind  
Wind Speed 16 mph (SSE)    
Max Wind Speed 33 mph    
Max Gust Speed 53 mph    
Visibility 5 miles    
Events Rain    
Averages and records for this station are not official NWS values.
T = Trace of Precipitation, MM = Missing Value Source: NWS Daily Summary

Daily Weather History Graph

Daily Weather History Graph

Search for Another Location

Airport or City:

Trip Planner

Search our weather history database for the weather conditions in past years. The results will help you decide how hot, cold, wet, or windy it might be!

Date:

Astronomy

Dec. 23, 2012 Rise Set
Actual Time 7:21 AM PST 4:49 PM PST
Civil Twilight 6:51 AM PST 5:18 PM PST
Nautical Twilight 6:17 AM PST 5:52 PM PST
Astronomical Twilight 5:45 AM PST 6:24 PM PST
Moon 1:41 PM PST (12/23) 3:10 AM PST (12/23)
Length of Visible Light 10h 27m
Length of Day
9h 27m
Waxing Gibbous, 82% of the Moon is Illuminated
Dec 23
Waxing Gibbous
Dec 28
Full
Jan 4
Last Quarter
Jan 11
New
Jan 18
First Quarter

Hourly Weather History & Observations

Time (PST) Temp. Dew Point Humidity Pressure Visibility Wind Dir Wind Speed Gust Speed Precip Events Conditions
12:10 AM 48.2 °F 46.4 °F 93% 30.12 in 1.8 mi South 5.8 mph - N/A Rain Rain
12:30 AM 48.2 °F 46.4 °F 93% 30.11 in 2.0 mi SSE 8.1 mph - N/A Rain Light Rain
12:50 AM 48.2 °F 46.4 °F 93% 30.10 in 8.0 mi SE 9.2 mph - N/A   Overcast
1:10 AM 48.2 °F 46.4 °F 93% 30.10 in 5.0 mi SE 8.1 mph - N/A Rain Light Rain
1:30 AM 48.2 °F 46.4 °F 93% 30.10 in 5.0 mi SE 10.4 mph - N/A Rain Light Rain
1:50 AM 48.2 °F 46.4 °F 93% 30.10 in 10.0 mi SE 10.4 mph 16.1 mph N/A   Overcast
2:10 AM 48.2 °F 46.4 °F 93% 30.10 in 9.0 mi SSE 13.8 mph 21.9 mph N/A   Mostly Cloudy
2:30 AM 48.2 °F 46.4 °F 93% 30.09 in 8.0 mi SSE 15.0 mph - N/A Rain Light Rain
2:50 AM 48.2 °F 46.4 °F 93% 30.09 in 10.0 mi SE 15.0 mph 19.6 mph N/A   Mostly Cloudy
3:10 AM 48.2 °F 46.4 °F 93% 30.08 in 10.0 mi SSE 18.4 mph 21.9 mph N/A   Scattered Clouds
3:30 AM 48.2 °F 46.4 °F 93% 30.08 in 10.0 mi SSE 16.1 mph 21.9 mph N/A   Partly Cloudy
3:50 AM 48.2 °F 46.4 °F 93% 30.08 in 10.0 mi SSE 16.1 mph - N/A Rain Light Rain
4:10 AM 48.2 °F 46.4 °F 93% 30.07 in 2.5 mi SSE 15.0 mph 18.4 mph N/A Rain Light Rain
4:30 AM 48.2 °F 46.4 °F 93% 30.05 in 5.0 mi SSE 15.0 mph 20.7 mph N/A Rain Light Rain
4:50 AM 48.2 °F 46.4 °F 93% 30.05 in 7.0 mi SE 11.5 mph - N/A Rain Light Rain
5:10 AM 48.2 °F 46.4 °F 93% 30.06 in 8.0 mi SSE 13.8 mph 17.3 mph N/A   Partly Cloudy
5:30 AM 48.2 °F 46.4 °F 93% 30.04 in 7.0 mi SSE 18.4 mph 24.2 mph N/A   Partly Cloudy
5:50 AM 48.2 °F 46.4 °F 93% 30.05 in 5.0 mi SSE 15.0 mph 21.9 mph N/A   Mostly Cloudy
6:10 AM 48.2 °F 46.4 °F 93% 30.05 in 5.0 mi SSE 16.1 mph 21.9 mph N/A   Overcast
6:30 AM 48.2 °F 46.4 °F 93% 30.04 in 4.0 mi SSE 15.0 mph - N/A Rain Light Rain
6:50 AM 48.2 °F 48.2 °F 100% 30.03 in 4.0 mi SSE 15.0 mph 20.7 mph N/A Rain Light Rain
7:10 AM 48.2 °F 48.2 °F 100% 30.02 in 5.0 mi SE 13.8 mph 20.7 mph N/A   Overcast
7:30 AM 48.2 °F 46.4 °F 93% 30.02 in 5.0 mi SSE 16.1 mph 24.2 mph N/A Rain Light Rain
7:50 AM 48.2 °F 46.4 °F 93% 30.01 in 4.0 mi SSE 20.7 mph 25.3 mph N/A Rain Light Rain
8:10 AM 48.2 °F 46.4 °F 93% 30.01 in 2.0 mi SE 19.6 mph 26.5 mph N/A Rain Light Rain
8:30 AM 48.2 °F 46.4 °F 93% 30.00 in 1.8 mi SE 20.7 mph 26.5 mph N/A Rain Light Rain
8:50 AM 48.2 °F 46.4 °F 93% 29.98 in 2.0 mi SE 24.2 mph 27.6 mph N/A Rain Light Rain
9:10 AM 50.0 °F 46.4 °F 87% 29.98 in 2.5 mi SE 24.2 mph 34.5 mph N/A Rain Light Rain
9:30 AM 50.0 °F 48.2 °F 94% 29.99 in 1.2 mi SSE 24.2 mph 40.3 mph N/A Rain Light Rain
9:50 AM 50.0 °F 48.2 °F 94% 29.98 in 3.0 mi SE 28.8 mph 38.0 mph N/A Rain Light Rain
10:10 AM 50.0 °F 48.2 °F 94% 29.97 in 2.5 mi SE 32.2 mph 43.7 mph N/A Rain Light Rain
10:30 AM 50.0 °F 48.2 °F 94% 29.96 in 2.0 mi SE 32.2 mph 40.3 mph N/A Rain Light Rain
10:50 AM 50.0 °F 48.2 °F 94% 29.95 in 1.5 mi SSE 28.8 mph 46.0 mph N/A Rain Light Rain
11:10 AM 50.0 °F 46.4 °F 87% 29.94 in 2.5 mi SE 27.6 mph 36.8 mph N/A Rain Light Rain
11:30 AM 50.0 °F 46.4 °F 87% 29.92 in 2.0 mi SE 27.6 mph 41.4 mph N/A Rain Light Rain
11:50 AM 50.0 °F 48.2 °F 94% 29.92 in 1.0 mi SSE 27.6 mph 43.7 mph N/A Rain Light Rain
12:10 PM 50.0 °F 48.2 °F 94% 29.91 in 1.5 mi SSE 28.8 mph 43.7 mph N/A Rain Light Rain
12:30 PM 50.0 °F 48.2 °F 94% 29.92 in 0.8 mi SSE 33.4 mph 43.7 mph N/A Rain Light Rain
12:50 PM 50.0 °F 48.2 °F 94% 29.91 in 1.2 mi SE 31.1 mph 52.9 mph N/A Rain Light Rain
1:10 PM 50.0 °F 48.2 °F 94% 29.90 in 2.5 mi SE 33.4 mph 41.4 mph N/A Rain Light Rain
1:30 PM 50.0 °F 48.2 °F 94% 29.89 in 1.8 mi SE 29.9 mph 46.0 mph N/A Rain Light Rain
1:50 PM 50.0 °F 48.2 °F 94% 29.90 in 1.8 mi SSE 27.6 mph 46.0 mph N/A Rain Light Rain
2:10 PM 50.0 °F 48.2 °F 94% 29.90 in 1.0 mi SSE 27.6 mph 38.0 mph N/A Rain Light Rain
2:30 PM 50.0 °F 48.2 °F 94% 29.90 in 1.2 mi SSE 24.2 mph 41.4 mph N/A Rain Light Rain
2:50 PM 50.0 °F 48.2 °F 94% 29.91 in 0.5 mi SSE 25.3 mph 38.0 mph N/A Rain Light Rain
3:10 PM 50.0 °F 48.2 °F 94% 29.89 in 1.2 mi SSE 25.3 mph 36.8 mph N/A Rain Light Rain
3:30 PM 50.0 °F 48.2 °F 94% 29.90 in 1.5 mi SE 20.7 mph 34.5 mph N/A Rain Light Rain
3:50 PM 50.0 °F 48.2 °F 94% 29.91 in 2.0 mi SSE 25.3 mph 33.4 mph N/A Rain Light Rain
4:10 PM 50.0 °F 48.2 °F 94% 29.91 in 1.0 mi SE 16.1 mph 26.5 mph N/A Rain Light Rain
4:30 PM 50.0 °F 48.2 °F 94% 29.91 in 1.2 mi SSE 25.3 mph 32.2 mph N/A Rain Light Rain
4:50 PM 50.0 °F 46.4 °F 87% 29.92 in 1.0 mi SSE 17.3 mph 32.2 mph N/A Rain Light Rain
5:10 PM 50.0 °F 46.4 °F 87% 29.92 in 5.0 mi SE 20.7 mph 31.1 mph N/A   Overcast
5:30 PM 48.2 °F 46.4 °F 93% 29.93 in 1.8 mi SSE 18.4 mph 27.6 mph N/A Rain Light Rain
5:50 PM 48.2 °F 46.4 °F 93% 29.93 in 3.0 mi SSE 21.9 mph 31.1 mph N/A Rain Light Rain
6:10 PM 48.2 °F 46.4 °F 93% 29.93 in 7.0 mi SSE 17.3 mph 27.6 mph N/A   Mostly Cloudy
6:30 PM 48.2 °F 46.4 °F 93% 29.93 in 8.0 mi SSE 23.0 mph 34.5 mph N/A   Overcast
6:50 PM 48.2 °F 46.4 °F 93% 29.93 in 2.5 mi SSE 23.0 mph 36.8 mph N/A Rain Light Rain
7:10 PM 48.2 °F 46.4 °F 93% 29.94 in 9.0 mi SSE 17.3 mph 28.8 mph N/A   Overcast
7:30 PM 48.2 °F 46.4 °F 93% 29.94 in 10.0 mi SSE 16.1 mph 25.3 mph N/A Rain Light Rain
7:50 PM 48.2 °F 46.4 °F 93% 29.94 in 10.0 mi SSE 16.1 mph 21.9 mph N/A Rain Light Rain
8:10 PM 48.2 °F 46.4 °F 93% 29.95 in 9.0 mi South 15.0 mph 18.4 mph N/A Rain Light Rain
8:30 PM 50.0 °F 46.4 °F 87% 29.95 in 10.0 mi South 15.0 mph - N/A Rain Light Rain
8:50 PM 50.0 °F 46.4 °F 87% 29.95 in 10.0 mi South 15.0 mph - N/A   Overcast
9:10 PM 48.2 °F 46.4 °F 93% 29.94 in 10.0 mi South 12.7 mph - N/A   Mostly Cloudy
9:30 PM 48.2 °F 46.4 °F 93% 29.96 in 10.0 mi South 10.4 mph 16.1 mph N/A   Partly Cloudy
9:50 PM 48.2 °F 46.4 °F 93% 29.96 in 10.0 mi South 10.4 mph - N/A Rain Light Rain
10:10 PM 48.2 °F 46.4 °F 93% 29.97 in 10.0 mi SSE 12.7 mph - N/A   Clear
10:30 PM 48.2 °F 46.4 °F 93% 29.98 in 10.0 mi South 11.5 mph - N/A   Clear
10:50 PM 48.2 °F 46.4 °F 93% 29.99 in 10.0 mi SSE 11.5 mph - N/A   Mostly Cloudy
11:10 PM 48.2 °F 46.4 °F 93% 29.99 in 10.0 mi South 9.2 mph - N/A   Overcast
11:30 PM 48.2 °F 46.4 °F 93% 29.99 in 10.0 mi SSE 10.4 mph - N/A   Overcast
11:50 PM 48.2 °F 46.4 °F 93% 29.99 in 10.0 mi South 10.4 mph - N/A Rain Light Rain